C/2014 S2 ( PanSTARRS )

Japanese version
Home page
Updated on May 15, 2016

---------------------------------------------------------------------

* Profile

Discovery Date September 22, 2014
Magnitude 20.9 mag
Discoverer Pan-STARRS 1 telescope (Haleakala)

* Pictures

* Orbital Elements

Epoch 2015 Dec. 4.0 TT = JDT 2457360.5
T 2015 Dec.  9.80097 TT                                 MPCW
q   2.1006624            (2000.0)            P               Q
z  +0.0058842      Peri.   87.80818     -0.02254069     -0.99155613
 +/-0.0000005      Node     8.12235     +0.03398584     -0.12842276
e   0.9876392      Incl.   64.67035     +0.99916809     -0.01800077
From 1923 observations 2014 Sept. 2-2016 Apr. 18, mean residual 0".6.

* Finding Charts

* Magnitudes Graph

        m1 =   6.5 + 5 log d + 15.0 log r  [    ,-129]  (             - 2015 Aug.  2)
        m1 = -12   + 5 log d + 60   log r  [-129,   0]  (2015 Aug.  2 - 2015 Dec.  9)
        m1 =   4.1 + 5 log d + 10.0 log r  [   0,    ]  (2015 Dec.  9 -             )

---------------------------------------------------------------------

The orbital elements are published on M.P.E.C. 2016-H35.
The charts are made with StellaNavigator Ver.8 (AstroArts).
The magnitudes graphs are made with Comet for Windows.

---------------------------------------------------------------------

Copyright(C) Seiichi Yoshida (comet@aerith.net). All rights reserved.